Flag for U.S.A. Weather past 2 weeks in Miami, Florida, U.S.A.

Now
80 °F

Partly sunny.


Feels Like: 82 °F
Forecast: 74 / 81 °F
Wind: 17 mph from Southeast

Location: Miami International Airport

Current Time: Mar 4, 2015 at 11:13:43 AM

Latest Report: Mar 4, 2015 at 10:53 AM


Visibility: 10 mi

Pressure: 30.18 "Hg

Humidity: 62%

Dew point: 66 °F

Location of MiamiLocation

Historic Weather in Miami — Graph

°F

Miami temperature yesterday

Maximum temperature yesterday: 82 °F (at 2:53 PM)
Minimum temperature yesterday: 71 °F (at 1:53 AM)
Average temperature yesterday: 76 °F

Past Weeks' High & Low Weather Summary

 TemperatureHumidityPressure
High86 °F (Feb 26, 1:53 PM)94% (Feb 25, 2:53 AM)30.36 "Hg (Feb 25, 2:53 AM)
Low42 °F (Feb 20, 3:53 AM)21% (Feb 19, 3:53 PM)29.82 "Hg (Feb 26, 2:53 AM)
Average71 °F69%30.13 "Hg
* Reported Feb 17 9:53 AM — Mar 4 9:53 AM, Miami, Weather by CustomWeather, © 2015

Note: Actual official high and low records may vary slightly from our data, if they occured in-between our weather recording intervals... More about our weather records

Advertising

Miami weather history for previous 24 hours

 ConditionsComfort  
Time TempWeatherWind HumidityBarometerVisibility
9:53 AM
Wed, Mar 4
79 °FBroken clouds.13 mph65%30.18 "Hg10 mi
8:53 AM78 °FBroken clouds.14 mph66%30.18 "Hg10 mi
7:53 AM76 °FPassing clouds.9 mph74%30.15 "Hg10 mi
6:53 AM74 °FScattered clouds.9 mph76%30.13 "Hg10 mi
5:53 AM74 °FPassing clouds.8 mph79%30.11 "Hg10 mi
4:53 AM74 °FPassing clouds.9 mph79%30.10 "Hg10 mi
3:53 AM74 °FPassing clouds.7 mph79%30.09 "Hg10 mi
2:53 AM74 °FPassing clouds.12 mph79%30.10 "Hg10 mi
1:53 AM73 °FPassing clouds.8 mph81%30.11 "Hg10 mi
12:53 AM74 °FPassing clouds.13 mph79%30.13 "Hg10 mi
11:53 PM
Tue, Mar 3
75 °FPassing clouds.14 mph76%30.15 "Hg10 mi
10:53 PM75 °FPassing clouds.15 mph76%30.15 "Hg10 mi
9:53 PM75 °FPassing clouds.13 mph76%30.16 "Hg10 mi
8:53 PM76 °FPassing clouds.13 mph74%30.16 "Hg10 mi
8:00 PM76 °FPassing clouds.16 mph74%30.14 "Hg10 mi
6:53 PM76 °FPartly cloudy.15 mph72%30.13 "Hg10 mi
5:53 PM77 °FPartly sunny.14 mph66%30.13 "Hg10 mi
4:53 PM78 °FScattered clouds.13 mph62%30.12 "Hg10 mi
3:53 PM81 °FPartly sunny.14 mph56%30.12 "Hg10 mi
2:53 PM82 °FWarm.N/A49%30.14 "HgN/A
1:53 PM80 °FPartly sunny.17 mph58%30.15 "Hg10 mi
12:53 PM80 °FPartly sunny.17 mph58%30.18 "Hg10 mi
11:53 AM80 °FPartly sunny.14 mph58%30.20 "Hg10 mi
Weather by CustomWeather, © 2015

See weather overviewHow to use our weather pages